Regional Weather Roundup
Issued by NWS

Home | Current Version | Previous Version | Graphics & Text | Print | Product List | Glossary Off
Versions: 1 2 3 4 5 6 7 8 9 10 11 12 13 14 15 16 17 18 19 20 21 22 23 24 25 26 27 28 29 30 31 32 33 34 35 36 37 38 39 40 41 42 43 44 45 46 47 48 49 50

000
ASUS43 KMKX 162221
RWRWI

WISCONSIN REGIONAL WEATHER ROUNDUP
NATIONAL WEATHER SERVICE MILWAUKEE/SULLIVAN WI
500 PM CDT TUE SEP 16 2014

NOTE: "FAIR" INDICATES FEW OR NO CLOUDS BELOW 12,000 FEET WITH NO
SIGNIFICANT WEATHER AND/OR OBSTRUCTIONS TO VISIBILITY.

WIZ001-002-006>008-014>016-023>028-162300-
NORTHWEST WISCONSIN

CITY           SKY/WX    TMP DP  RH WIND       PRES   REMARKS
SUPERIOR ARPT  SUNNY     68  44  41 SW10G17   29.99F
ASHLAND        SUNNY     67  46  47 SW12G21   30.00F
HAYWARD        SUNNY     66  41  40 VRB7      30.04F
SIREN          MOSUNNY   65  42  42 SW6       30.05F
RICE LAKE      MOSUNNY   65  39  38 SW7       30.08S
LADYSMITH      SUNNY     65  42  43 W8        30.08S
EAU CLAIRE     SUNNY     66  41  40 S9        30.07F
MENOMONIE      PTCLDY    67  41  39 S8        30.06F
NEW RICHMOND   SUNNY     65  40  39 SW5       30.06F
OSCEOLA        SUNNY     66  41  40 SW9       30.08F
$$

WIZ003>005-009-010-017-018-162300-
NORTH CENTRAL WISCONSIN

CITY           SKY/WX    TMP DP  RH WIND       PRES   REMARKS
WOODRUFF       NOT AVBL
RHINELANDER    SUNNY     64  41  42 W13       30.05F
EAGLE RIVER    SUNNY     64  36  35 W9G17     30.02F
LAND O LAKES   SUNNY     65  39  38 W10       30.02F
PHILLIPS       MOSUNNY   63  42  45 SW9       30.04F
TOMAHAWK       PTSUNNY   63  40  43 W7        30.06F
MEDFORD        SUNNY     62  41  46 SW8       30.07F
MERRILL        PTSUNNY   65  43  45 W10       30.06F
$$

WIZ029-030-035-036-043>047-162300-
CENTRAL WISCONSIN

CITY           SKY/WX    TMP DP  RH WIND       PRES   REMARKS
WAUSAU         SUNNY     64  42  44 W10       30.06F
MOSINEE        MOSUNNY   63  45  51 W9        30.08F
MARSHFIELD     MOSUNNY   62  42  47 SW8       30.07F
STEVENS POINT  MOSUNNY   62  41  46 W7        30.08F
WAUPACA        SUNNY     67  42  40 W8        30.08F
WAUTOMA        MOSUNNY   66  41  40 W5        30.09F
WISC RAPIDS    MOSUNNY   63  40  42 SW8       30.09F
CAMP DOUGLAS   MOSUNNY   64  45  48 W10       30.09F
$$

WIZ011>013-019>022-031-037>040-048>050-162300-
NORTHEAST WISCONSIN

CITY           SKY/WX    TMP DP  RH WIND       PRES   REMARKS
ANTIGO         MOSUNNY   62  43  49 W14       30.06F
STURGEON BAY   SUNNY     63  43  48 SW12G21   30.05S
GREEN BAY      SUNNY     65  44  46 W9        30.07F
MANITOWOC      SUNNY     64  43  46 W9        30.08F
APPLETON       MOSUNNY   64  39  39 SW9       30.09S
CLINTONVILLE   SUNNY     64  41  42 W8        30.06F
OSHKOSH        SUNNY     64  43  46 W7        30.08F
$$

WIZ032>034-041-042-053>061-162300-
SOUTHWEST WISCONSIN

CITY           SKY/WX    TMP DP  RH WIND       PRES   REMARKS
LA CROSSE      SUNNY     67  43  41 SW3       30.08F
SPARTA         SUNNY     64  41  42 W8        30.10F
VIROQUA        FAIR      63  44  49 NW3       30.10F
BOSCOBEL       MOSUNNY   66  44  45 VRB3      30.10F
PRAIRIE DU CHI SUNNY     66  40  38 S3        30.09F
PLATTEVILLE    FAIR      64  44  47 CALM      30.11F
$$

WIZ056-057-062-063-064-067-068-162300-
SOUTH CENTRAL WISCONSIN

CITY           SKY/WX    TMP DP  RH WIND       PRES   REMARKS
BARABOO/DELLS  SUNNY     64  39  39 W7        30.09F
LONE ROCK      MOSUNNY   68  43  40 SW7       30.10F
WATERTOWN      SUNNY     63  42  46 W5        30.10F
MADISON        MOSUNNY   64  42  44 VRB3      30.10F
MIDDLETON      FAIR      65  40  40 NW3       30.10F
MONROE         SUNNY     63  41  45 W7        30.10F
JANESVILLE     SUNNY     66  39  37 NW8       30.10F
$$

WIZ051-052-058>065-066-070>072-162300-
SOUTHEAST WISCONSIN

CITY           SKY/WX    TMP DP  RH WIND       PRES   REMARKS
MILWAUKEE      MOSUNNY   60  41  49 SE10      30.10F
WAUKESHA       SUNNY     61  43  51 W8        30.12F
MILWAUKEE/TIMM SUNNY     63  37  39 W5        30.11F
RACINE         SUNNY     60  42  51 E8        30.13F
BURLINGTON     SUNNY     63  40  43 W6        30.11F
KENOSHA        SUNNY     63  42  46 SW3       30.11F
FOND DU LAC    SUNNY     63  41  44 W7        30.09F
SHEBOYGAN      SUNNY     64  40  41 W7        30.09F
WEST BEND      SUNNY     63  37  39 SW6       30.09F
JUNEAU         SUNNY     62  42  47 W7        30.11F
$$

LSZ147-162-162300-
LAKE SUPERIOR

STATION/POSITION TIME  TEMP    WIND        PRES    WAVE
                       AIR SEA DIR/SP/G            HT/PER
                 (UTC) (F)     (DEG/KT/KT) (MB)    (FT/S)
W MID LAKE BUOY  2150   53 46  250/ 12/ 14 1014.3F   4/ 6
DEVILS ISLAND    2200   61     240/ 20/ 22 1014.4F
PORT WING        2100   67     240/ 11/ 18 1015.9F
SAXON HARBOR     2140   69     220/  6/ 15 1015.9F
$$

LMZ867-665-643>646-162300-
LAKE MICHIGAN

STATION/POSITION TIME  TEMP    WIND        PRES    WAVE
                       AIR SEA DIR/SP/G            HT/PER
                 (UTC) (F)     (DEG/KT/KT) (MB)    (FT/S)
N MID LAKE BUOY  2050   57 58  210/ 19/ 23 1016.9F   3/ 4
NORTHPORT PIER   2100   65     200/  5/ 14 1016.9F
KEWAUNEE LAKESHO 2200   63     250/  8/ 14 1017.1F
SHEBOYGAN LAKESH 2200   60 48  170/ 11/ 13 1019.1F
PORT WASHINGTON  2100   61     170/  9/ 14 1020.0F
ATWATER BUOY     2200   60     150/ 10/ 12 1020.3F
MILWAUKEE LAKESH 2200   58     140/  9/ 10   N/A
S MID LAKE BUOY  2150   58 65   40/  4/  6 1020.3F   1/ 5
KENOSHA   LAKESH 2200   63     140/  7/  8 1019.3F
$$

TC  - TEMPERATURE IN CELSIUS
VSB - VISIBILITY IN STATUTE MILES
WCI - WIND CHILL INDEX
HX  - HEAT INDEX



USA.gov is the U.S. government's official web portal to all federal, state and local government web resources and services.